SCP
4 4 5 5 5 5 3 2 2 1 1 1 1 1 1 1 1 1 2 2 2 2 2 1 1 1 1 1 2 2 2 1 1 1 1 1 1 0
5 5 5 6 5 4 3 2 2 2 2 2 1 1 1 1 1 2 2 2 2 2 2 1 1 1 1 1 1 1 1 1 1 1 1 1 1 0
5 5 5 5 5 3 3 2 2 2 2 2 2 2 2 2 2 2 2 2 2 2 2 1 1 1 1 1 1 0 1 1 1 1 1 1 1 0
4 4 4 4 3 2 2 2 2 2 2 2 2 2 2 2 2 3 3 3 2 2 1 1 1 1 0 0 0 0 0 0 0 1 1 1 1 0
3 3 2 2 2 2 2 2 2 2 2 2 2 2 2 2 2 2 2 2 2 2 2 1 1 1 0 0 0 0 0 0 0 0 0 0 0 0
2 2 2 2 2 2 2 2 2 2 2 2 2 2 2 2 2 2 2 2 2 2 2 2 1 1 0 0 0 0 0 0 0 0 0 0 0 0
2 2 2 2 2 3 3 2 2 2 2 2 2 2 2 2 2 2 2 2 2 2 2 2 1 1 1 1 1 0 0 0 0 0 0 0 0 0
2 1 1 2 2 3 2 2 1 2 2 3 2 2 2 2 2 2 2 2 2 3 2 2 1 1 1 1 1 1 0 0 0 0 0 0 0 0
1 1 1 2 2 2 2 2 1 1 2 2 2 2 2 2 2 2 2 2 2 2 2 1 1 1 1 1 1 1 0 0 0 0 0 0 0 0
1 1 1 1 2 2 2 2 2 2 1 1 1 1 2 1 1 1 1 1 1 1 1 1 1 1 0 0 0 0 0 0 0 0 0 0 0 0
2 2 1 1 1 1 1 2 2 2 2 1 1 1 1 1 1 1 1 1 1 1 1 1 1 1 0 0 0 0 0 0 0 0 0 0 0 0
2 2 1 1 1 1 1 2 2 2 2 1 1 1 0 1 1 1 1 1 1 1 1 1 1 1 1 1 1 0 0 0 0 0 0 0 0 0
2 2 2 1 1 1 1 1 2 2 1 1 1 1 1 1 1 1 1 1 1 1 1 1 1 1 1 1 1 1 1 1 0 0 0 0 0 0
2 2 2 1 1 0 0 1 1 1 1 1 1 1 1 1 1 1 1 2 2 2 2 1 1 1 1 1 1 1 1 1 1 0 0 0 0 0
2 2 1 1 0 0 0 0 0 0 0 1 1 1 1 1 1 1 2 2 2 2 2 2 2 2 2 1 1 1 1 1 1 1 1 1 0 0
1 1 1 0 0 0 0 0 0 0 0 0 1 1 1 1 1 1 2 2 2 2 2 2 2 2 2 2 2 2 2 1 1 1 1 1 1 0
1 1 1 0 0 0 0 0 0 0 0 0 1 1 1 1 1 1 1 2 2 2 2 2 2 2 2 2 2 2 2 2 2 2 2 1 1 0
1 1 1 0 0 0 0 0 0 0 1 1 1 1 1 1 1 1 1 2 2 2 2 2 2 2 2 1 1 2 2 2 3 3 2 1 1 0
0 0 1 1 0 0 0 1 1 1 1 1 1 1 1 1 1 1 2 2 2 1 1 1 1 2 2 1 1 1 2 2 2 3 2 1 1 0
0 0 1 1 1 1 1 1 1 1 1 1 1 1 1 1 1 1 1 1 1 1 1 1 1 1 1 1 1 1 1 1 2 2 2 1 0 0
0 0 1 1 1 1 1 1 1 1 2 2 2 2 2 2 2 2 1 1 1 1 1 1 1 1 1 1 1 1 1 1 1 1 1 1 0 0
0 0 1 1 1 1 1 1 1 1 2 2 2 2 2 2 2 2 2 2 1 1 1 1 1 1 1 1 1 1 1 0 0 0 0 0 0 0
0 0 1 1 1 2 2 2 1 1 1 1 2 2 2 2 2 2 2 2 2 1 1 1 1 1 1 1 1 1 0 0 0 0 0 0 0 0
Wind_Speed
3 3 3 2 2 2 2 3 2 2 4 3 2 3 2 2 4 3 3 5 6 7 7 8 8 7 7 7 8 8 8 8 8 9 9 10 11 11
2 3 3 2 2 2 2 2 3 3 4 4 3 3 3 3 4 3 4 6 7 8 8 8 7 6 6 6 7 7 7 7 8 9 9 9 10 11
3 3 4 3 2 2 2 2 2 3 4 5 3 3 3 4 3 3 3 3 4 7 8 8 8 8 7 8 7 7 7 7 7 8 8 9 9 10
4 3 4 3 2 2 2 3 3 3 3 5 4 2 3 4 3 3 3 3 3 6 8 9 9 9 9 8 7 7 7 7 7 7 8 9 9 10
4 4 4 2 2 2 2 2 3 3 2 3 4 2 2 2 2 3 4 3 4 5 6 7 9 9 8 8 8 8 8 8 8 8 8 8 9 9
4 3 3 3 3 3 2 3 2 2 2 2 3 2 2 2 1 2 3 3 3 3 4 4 6 8 8 8 8 8 8 8 8 8 8 8 8 8
3 2 3 3 3 3 2 2 2 2 2 2 2 2 2 2 2 2 3 3 4 3 2 3 3 3 4 7 8 9 9 9 9 8 8 9 9 8
3 3 4 3 4 4 4 3 3 2 3 2 2 3 4 3 2 2 2 3 4 2 2 3 2 4 4 4 7 9 9 9 9 9 9 9 9 9
3 4 4 4 3 2 3 4 4 5 6 4 4 5 5 4 3 3 3 4 5 3 1 4 2 4 4 5 8 9 10 10 9 9 9 9 9 9
3 4 4 4 3 2 3 3 3 4 5 4 5 6 5 5 4 4 5 4 4 3 2 3 3 4 4 4 7 9 9 9 9 9 9 9 9 9
4 4 4 4 5 4 2 3 4 5 5 5 6 7 8 8 5 2 2 1 3 4 2 2 3 3 3 4 5 8 9 9 9 10 10 10 9 8
3 4 5 5 6 5 3 3 4 5 4 4 4 5 4 5 5 4 3 2 2 4 3 2 2 1 3 3 3 3 4 7 9 10 10 10 9 5
3 3 3 6 6 6 5 4 6 4 3 3 3 3 3 2 3 3 3 3 3 4 3 2 2 2 2 3 3 2 3 3 3 5 7 9 9 7
3 3 4 6 6 6 4 4 4 2 1 1 2 3 3 3 3 3 4 4 5 6 4 2 2 3 2 3 4 3 2 3 3 3 3 5 7 8
3 4 5 5 4 3 4 4 2 1 1 2 3 3 3 3 3 2 3 3 4 4 4 4 4 3 3 4 4 3 2 3 2 3 3 3 4 4
3 4 5 4 3 3 3 2 2 2 2 3 3 4 3 2 2 2 3 2 3 4 4 4 4 4 4 4 4 4 3 3 3 3 3 3 3 4
2 1 1 1 2 2 3 3 2 2 2 3 3 3 3 3 3 3 2 2 2 4 4 3 3 3 4 3 3 4 4 3 3 2 2 2 2 3
0 1 2 2 3 3 3 3 3 3 3 3 3 3 3 3 4 3 2 2 3 4 4 3 2 2 2 2 3 3 3 4 3 2 2 2 3 2
1 2 3 3 4 3 3 3 3 4 3 3 3 3 3 3 3 3 3 3 3 3 3 2 2 1 2 4 4 3 3 3 2 2 2 2 3 2
2 3 3 3 3 4 4 4 3 3 2 3 3 3 3 3 3 4 3 3 3 3 3 2 2 3 4 4 3 3 3 3 2 3 2 1 1 1
3 3 3 3 3 3 3 3 2 2 2 2 3 3 3 3 3 4 4 4 4 3 3 4 4 5 2 1 1 2 2 2 2 2 2 2 1 1
3 3 3 2 2 2 2 2 2 2 3 3 3 3 3 3 3 4 4 3 3 3 4 4 3 1 1 2 3 3 2 2 2 1 1 2 3 3
3 3 3 3 2 2 2 2 3 3 3 3 3 3 3 3 3 3 3 3 3 3 3 2 2 1 1 2 2 2 2 1 1 1 2 2 2 3
Wind_Direction
244 248 248 252 238 228 205 183 189 268 285 274 281 274 259 251 243 241 248 246 244 246 244 241 241 244 245 245 244 244 244 244 241 240 239 236 234 233
246 253 264 261 254 242 227 212 191 199 253 265 260 270 271 265 251 237 245 252 247 245 243 239 233 235 241 244 243 242 242 243 242 238 235 238 237 233
263 256 262 260 258 253 233 222 219 201 246 274 266 277 275 271 275 259 255 247 252 247 245 238 231 230 235 236 236 235 237 241 244 241 238 239 235 232
261 261 265 267 264 255 244 242 240 223 224 266 280 279 268 263 267 264 267 259 252 257 252 241 234 232 234 236 234 234 238 242 244 245 243 241 236 232
252 251 257 257 267 267 266 258 253 257 234 246 271 271 273 279 292 286 277 274 265 260 251 240 237 237 236 234 232 236 239 241 242 243 243 242 239 235
260 247 243 236 243 248 255 255 257 260 260 258 270 279 281 283 284 286 295 283 274 270 260 254 247 244 240 237 237 237 238 240 241 240 239 237 237 237
280 267 257 252 252 249 259 251 253 255 265 270 274 287 287 298 276 263 278 286 280 254 259 262 253 255 250 243 240 238 239 240 240 239 239 237 234 234
284 279 272 267 277 271 271 257 234 234 241 244 263 268 270 264 265 265 274 292 288 264 235 264 234 247 248 238 237 235 234 235 236 238 238 237 234 231
277 275 281 292 277 264 271 275 268 255 231 217 233 250 254 252 250 266 259 255 259 262 253 273 256 255 253 251 237 232 233 234 236 238 239 238 236 233
259 256 258 274 287 283 281 291 285 276 254 232 227 241 248 247 232 236 243 262 275 267 215 255 266 260 264 253 243 235 235 238 237 236 235 236 235 234
258 256 250 256 271 267 262 274 289 291 281 265 258 258 259 258 248 251 263 271 282 278 234 224 260 271 271 262 251 237 236 238 238 238 237 234 233 232
273 275 266 264 273 255 234 238 266 279 292 302 296 292 278 269 255 221 218 231 262 274 256 219 253 266 288 272 253 244 241 243 240 241 240 234 228 221
263 274 278 284 279 269 251 239 252 262 272 278 291 298 301 291 271 244 224 215 229 252 253 217 240 242 240 280 288 256 237 243 243 244 238 232 222 207
251 260 271 283 278 270 258 268 273 272 285 297 298 292 290 287 278 264 254 240 233 240 246 215 225 228 236 262 274 276 259 248 236 239 236 227 220 214
262 273 281 280 274 270 269 273 271 266 262 281 275 273 268 268 280 285 289 282 278 265 255 232 228 235 226 237 252 254 268 267 238 236 232 218 211 198
286 288 291 281 272 278 283 278 250 231 229 250 268 276 283 291 289 284 286 293 295 292 282 258 238 229 238 242 238 247 240 245 250 242 235 236 220 208
275 308 307 300 288 288 284 276 267 260 257 264 272 286 287 285 287 284 278 284 275 279 291 294 276 251 237 229 241 246 243 250 245 234 229 241 242 221
186 261 262 264 262 263 268 274 263 251 250 255 266 270 276 280 284 287 281 270 270 268 270 276 289 320 327 296 237 240 253 255 255 231 209 217 242 239
202 250 258 263 266 267 267 267 266 259 250 248 260 266 270 276 279 278 277 277 273 272 270 263 244 218 258 281 284 233 229 259 263 243 223 213 227 227
233 244 255 264 266 266 270 271 274 279 272 265 267 268 267 272 278 277 273 270 272 276 282 274 246 226 226 241 257 279 256 234 240 241 232 224 224 210
244 250 260 270 273 271 274 277 278 280 286 283 277 275 273 273 273 272 270 270 267 269 267 268 265 254 239 190 264 285 289 255 233 231 211 188 168 141
254 256 264 274 275 279 285 288 289 289 290 290 289 283 274 267 270 271 267 266 265 262 265 275 293 299 202 213 241 260 284 306 325 1 51 157 164 177
251 256 264 272 275 283 285 289 289 289 290 289 290 289 285 277 272 271 270 267 273 271 277 288 309 301 258 232 232 248 259 273 311 24 20 20 119 144